| time (UTC) | temp F | wind direction | speed MPH | gust MPH | rain 1hr in | rain 24hr in | rain mn in | humidity % | barometer mb |
| 20260905110903 | 62 | 346 | 2.0 | 7.0 | 0.00 | 0.25 | 0.00 | 59 | 996.3 |
| 20260905110003 | 62 | 304 | 2.0 | 7.0 | 0.00 | 0.25 | 0.00 | 63 | 996.1 |
| 20260905105403 | 62 | 299 | 0.0 | 4.0 | 0.00 | 0.25 | 0.00 | 59 | 996.1 |
| 20260905104504 | 62 | 320 | 2.0 | 9.0 | 0.00 | 0.25 | 0.00 | 60 | 995.9 |
| 20260905103603 | 62 | 45 | 6.0 | 9.0 | 0.00 | 0.25 | 0.00 | 61 | 995.6 |
| 20260905102703 | 62 | 16 | 1.0 | 4.0 | 0.00 | 0.25 | 0.00 | 63 | 995.8 |
| 20260905101803 | 62 | 335 | 2.0 | 7.0 | 0.00 | 0.25 | 0.00 | 63 | 995.8 |
| 20260905100904 | 63 | 33 | 2.0 | 4.0 | 0.00 | 0.25 | 0.00 | 64 | 995.7 |
| 20260905100005 | 63 | 1 | 2.0 | 6.0 | 0.00 | 0.25 | 0.00 | 63 | 995.6 |
| 20260905095403 | 63 | 339 | 2.0 | 6.0 | 0.00 | 0.25 | 0.00 | 62 | 995.8 |
| 20260905094503 | 60 | 329 | 4.0 | 6.0 | 0.00 | 0.25 | 0.00 | 68 | 995.4 |
| 20260905093605 | 60 | 320 | 0.0 | 6.0 | 0.00 | 0.25 | 0.00 | 72 | 995.5 |
| 20260905092704 | 59 | 310 | 4.0 | 6.0 | 0.00 | 0.25 | 0.00 | 73 | 995.4 |
| 20260905091803 | 59 | 300 | 3.0 | 6.0 | 0.00 | 0.25 | 0.00 | 76 | 995.5 |
| 20260905090903 | 59 | 286 | 2.0 | 7.0 | 0.00 | 0.25 | 0.00 | 79 | 995.3 |
| 20260905090003 | 57 | 291 | 3.0 | 6.0 | 0.00 | 0.25 | 0.00 | 85 | 995.2 |
| 20260905085424 | 57 | 291 | 4.0 | 6.0 | 0.00 | 0.25 | 0.00 | 85 | 995.1 |
| 20260905084504 | 56 | 285 | 3.0 | 6.0 | 0.00 | 0.25 | 0.00 | 89 | 995.4 |
| 20260905083603 | 55 | 277 | 3.0 | 6.0 | 0.00 | 0.25 | 0.00 | 90 | 995.2 |
| 20260905082703 | 55 | 270 | 2.0 | 4.0 | 0.00 | 0.25 | 0.00 | 91 | 995.1 |
| 20260905081804 | 55 | 268 | 1.0 | 4.0 | 0.00 | 0.25 | 0.00 | 92 | 994.9 |
| 20260905080903 | 54 | 255 | 1.0 | 4.0 | 0.00 | 0.25 | 0.00 | 92 | 995.0 |
| 20260905080004 | 54 | 263 | 1.0 | 4.0 | 0.00 | 0.25 | 0.00 | 93 | 994.7 |
| 20260905075403 | 54 | 267 | 2.0 | 4.0 | 0.00 | 0.25 | 0.00 | 93 | 994.9 |
| 20260905074524 | 54 | 270 | 1.0 | 4.0 | 0.00 | 0.25 | 0.00 | 94 | 994.5 |
| 20260905073603 | 54 | 270 | 2.0 | 2.0 | 0.00 | 0.25 | 0.00 | 95 | 994.7 |
| 20260905072704 | 54 | 270 | 0.0 | 4.0 | 0.00 | 0.25 | 0.00 | 96 | 994.4 |
| 20260905071803 | 53 | 270 | 1.0 | 4.0 | 0.00 | 0.25 | 0.00 | 96 | 994.4 |
| 20260905070904 | 53 | 261 | 1.0 | 4.0 | 0.00 | 0.25 | 0.00 | 98 | 994.5 |
| 20260905070003 | 52 | 274 | 2.0 | 4.0 | 0.00 | 0.25 | 0.00 | 99 | 994.4 |
| 20260905065404 | 52 | 292 | 1.0 | 4.0 | 0.00 | 0.25 | 0.00 | 99 | 994.3 |
| 20260905064503 | 52 | 279 | 2.0 | 4.0 | 0.00 | 0.25 | 0.00 | 99 | 994.4 |
| 20260905063603 | 51 | 292 | 2.0 | 4.0 | 0.00 | 0.25 | 0.00 | 99 | 994.3 |
| 20260905062703 | 51 | 288 | 2.0 | 4.0 | 0.00 | 0.25 | 0.00 | 99 | 994.2 |
| 20260905061803 | 51 | 263 | 2.0 | 4.0 | 0.00 | 0.25 | 0.00 | 99 | 994.2 |
| 20260905060903 | 51 | 247 | 0.0 | 2.0 | 0.00 | 0.25 | 0.00 | 99 | 994.0 |
| 20260905060025 | 51 | 247 | 0.0 | 2.0 | 0.00 | 0.25 | 0.00 | 99 | 993.9 |
| 20260905055403 | 51 | 247 | 0.0 | 2.0 | 0.00 | 0.25 | 0.00 | 99 | 993.6 |
| 20260905054505 | 51 | 247 | 0.0 | 2.0 | 0.00 | 0.25 | 0.00 | 99 | 993.8 |
| 20260905053603 | 51 | 250 | 1.0 | 2.0 | 0.00 | 0.25 | 0.00 | 99 | 993.7 |
| 20260905052703 | 51 | 267 | 2.0 | 2.0 | 0.00 | 0.25 | 0.00 | 99 | 993.7 |
| 20260905051804 | 51 | 270 | 0.0 | 2.0 | 0.00 | 0.25 | 0.00 | 99 | 993.6 |
| 20260905050904 | 51 | 0 | 0.0 | 0.0 | 0.00 | 0.25 | 0.00 | 99 | 993.5 |
| 20260905050004 | 50 | 270 | 0.0 | 2.0 | 0.00 | 0.25 | 0.00 | 99 | 993.3 |
| 20260905045405 | 50 | 270 | 0.0 | 2.0 | 0.00 | 0.25 | 0.00 | 99 | 993.4 |
| 20260905044504 | 50 | 0 | 0.0 | 0.0 | 0.00 | 0.25 | 0.00 | 99 | 993.3 |
| 20260905043605 | 51 | 270 | 0.0 | 2.0 | 0.00 | 0.25 | 0.00 | 99 | 993.4 |
| 20260905042724 | 51 | 255 | 2.0 | 4.0 | 0.00 | 0.25 | 0.00 | 99 | 993.3 |
| 20260905041824 | 51 | 266 | 1.0 | 2.0 | 0.00 | 0.25 | 0.00 | 99 | 993.3 |
| 20260905040903 | 51 | 270 | 2.0 | 2.0 | 0.00 | 0.25 | 0.00 | 99 | 993.0 |
| 20260905040003 | 51 | 272 | 2.0 | 4.0 | 0.00 | 0.25 | 0.00 | 99 | 993.1 |
| 20260905035403 | 51 | 283 | 2.0 | 4.0 | 0.00 | 0.25 | 0.00 | 99 | 993.2 |
| 20260905034505 | 51 | 292 | 1.0 | 2.0 | 0.00 | 0.25 | 0.00 | 99 | 993.1 |
| 20260905033624 | 51 | 292 | 1.0 | 2.0 | 0.00 | 0.25 | 0.00 | 99 | 993.1 |
| 20260905032724 | 51 | 292 | 0.0 | 2.0 | 0.00 | 0.25 | 0.00 | 99 | 992.9 |
| 20260905031803 | 51 | 292 | 0.0 | 2.0 | 0.00 | 0.25 | 0.00 | 99 | 993.1 |
| 20260905030903 | 51 | 292 | 0.0 | 2.0 | 0.00 | 0.25 | 0.00 | 98 | 992.8 |
| 20260905030005 | 51 | 292 | 0.0 | 2.0 | 0.00 | 0.25 | 0.00 | 98 | 992.9 |
| 20260905025403 | 51 | 292 | 1.0 | 2.0 | 0.00 | 0.25 | 0.00 | 98 | 992.8 |
| 20260905024503 | 51 | 292 | 1.0 | 4.0 | 0.00 | 0.25 | 0.00 | 98 | 992.9 |
| 20260905023605 | 51 | 292 | 1.0 | 2.0 | 0.00 | 0.25 | 0.00 | 98 | 993.0 |
| 20260905022724 | 51 | 292 | 0.0 | 2.0 | 0.00 | 0.25 | 0.00 | 98 | 992.6 |
| 20260905021805 | 51 | 292 | 1.0 | 2.0 | 0.00 | 0.25 | 0.00 | 98 | 992.5 |
| 20260905020903 | 51 | 292 | 1.0 | 2.0 | 0.00 | 0.25 | 0.00 | 98 | 992.6 |
| 20260905020026 | 51 | 292 | 1.0 | 2.0 | 0.00 | 0.25 | 0.00 | 98 | 992.4 |
| 20260905015403 | 51 | 292 | 2.0 | 2.0 | 0.00 | 0.25 | 0.00 | 98 | 992.4 |
| 20260905014505 | 51 | 292 | 0.0 | 2.0 | 0.00 | 0.25 | 0.00 | 99 | 992.5 |
| 20260905013626 | 51 | 292 | 0.0 | 2.0 | 0.00 | 0.25 | 0.00 | 99 | 992.4 |
| 20260905012705 | 51 | 292 | 1.0 | 2.0 | 0.00 | 0.25 | 0.00 | 99 | 992.3 |
| 20260905011824 | 51 | 292 | 0.0 | 2.0 | 0.00 | 0.25 | 0.00 | 99 | 992.4 |
| 20260905010905 | 51 | 292 | 0.0 | 2.0 | 0.00 | 0.25 | 0.00 | 99 | 992.4 |
| 20260905010003 | 51 | 292 | 0.0 | 2.0 | 0.00 | 0.25 | 0.00 | 99 | 992.3 |
| 20260905005403 | 51 | 292 | 1.0 | 2.0 | 0.00 | 0.25 | 0.00 | 99 | 992.3 |
| 20260905004524 | 51 | 292 | 0.0 | 4.0 | 0.00 | 0.25 | 0.00 | 99 | 992.3 |
| 20260905003603 | 51 | 292 | 0.0 | 2.0 | 0.00 | 0.25 | 0.00 | 99 | 992.1 |
| 20260905002703 | 51 | 292 | 0.0 | 2.0 | 0.00 | 0.25 | 0.00 | 99 | 992.3 |
| 20260905001803 | 51 | 292 | 0.0 | 2.0 | 0.00 | 0.25 | 0.00 | 99 | 992.2 |
| 20260905000903 | 52 | 292 | 1.0 | 2.0 | 0.00 | 0.25 | 0.00 | 99 | 992.0 |
| 20260905000024 | 52 | 292 | 1.0 | 2.0 | 0.00 | 0.25 | 0.00 | 99 | 991.8 |
| 20260904235426 | 52 | 292 | 0.0 | 2.0 | 0.00 | 0.25 | 0.00 | 99 | 992.0 |
| 20260904234505 | 51 | 0 | 0.0 | 0.0 | 0.00 | 0.25 | 0.00 | 99 | 992.2 |
| 20260904233603 | 51 | 0 | 0.0 | 0.0 | 0.00 | 0.25 | 0.00 | 99 | 992.1 |
| 20260904232703 | 51 | 0 | 0.0 | 0.0 | 0.00 | 0.25 | 0.00 | 99 | 992.1 |
| 20260904231824 | 52 | 292 | 0.0 | 2.0 | 0.00 | 0.25 | 0.00 | 99 | 992.0 |
| 20260904230903 | 52 | 292 | 1.0 | 2.0 | 0.00 | 0.25 | 0.00 | 99 | 992.1 |
| 20260904230005 | 51 | 0 | 0.0 | 0.0 | 0.00 | 0.25 | 0.00 | 99 | 992.0 |
| 20260904225424 | 52 | 292 | 0.0 | 2.0 | 0.00 | 0.25 | 0.00 | 99 | 992.0 |
| 20260904224505 | 52 | 292 | 0.0 | 2.0 | 0.00 | 0.25 | 0.00 | 99 | 992.3 |
| 20260904223605 | 52 | 292 | 1.0 | 2.0 | 0.01 | 0.25 | 0.00 | 99 | 992.1 |
| 20260904222703 | 51 | 292 | 0.0 | 2.0 | 0.01 | 0.25 | 0.00 | 99 | 992.3 |
| 20260904221824 | 51 | 0 | 0.0 | 0.0 | 0.01 | 0.25 | 0.00 | 99 | 992.2 |
| 20260904220927 | 51 | 0 | 0.0 | 0.0 | 0.01 | 0.25 | 0.00 | 99 | 992.2 |
| 20260904220003 | 52 | 0 | 0.0 | 0.0 | 0.01 | 0.25 | 0.00 | 99 | 992.3 |
| 20260904215405 | 51 | 0 | 0.0 | 0.0 | 0.01 | 0.25 | 0.25 | 99 | 992.3 |
| 20260904214503 | 52 | 292 | 0.0 | 2.0 | 0.02 | 0.25 | 0.25 | 99 | 992.2 |
| 20260904213605 | 52 | 292 | 1.0 | 2.0 | 0.01 | 0.24 | 0.24 | 99 | 992.1 |
| 20260904212703 | 52 | 292 | 0.0 | 2.0 | 0.01 | 0.24 | 0.24 | 99 | 992.4 |
| 20260904211803 | 52 | 292 | 1.0 | 2.0 | 0.01 | 0.24 | 0.24 | 99 | 992.3 |
| 20260904210924 | 52 | 292 | 0.0 | 2.0 | 0.02 | 0.24 | 0.24 | 99 | 992.1 |
| 20260904210003 | 52 | 292 | 1.0 | 2.0 | 0.02 | 0.24 | 0.24 | 99 | 992.3 |
| 20260904205424 | 52 | 292 | 0.0 | 2.0 | 0.04 | 0.24 | 0.24 | 99 | 992.3 |
| 20260904204503 | 52 | 292 | 0.0 | 2.0 | 0.04 | 0.22 | 0.22 | 98 | 992.4 |
| 20260904203603 | 52 | 292 | 1.0 | 2.0 | 0.04 | 0.22 | 0.22 | 99 | 992.4 |
| 20260904202705 | 52 | 292 | 1.0 | 2.0 | 0.04 | 0.22 | 0.22 | 99 | 992.3 |
| 20260904201805 | 52 | 292 | 0.0 | 2.0 | 0.05 | 0.22 | 0.22 | 99 | 992.2 |
| 20260904200903 | 52 | 292 | 1.0 | 2.0 | 0.05 | 0.21 | 0.21 | 99 | 992.2 |
| 20260904200003 | 52 | 292 | 0.0 | 2.0 | 0.06 | 0.21 | 0.21 | 99 | 992.4 |
| 20260904195403 | 53 | 292 | 1.0 | 2.0 | 0.06 | 0.20 | 0.20 | 99 | 992.4 |
| 20260904194503 | 52 | 292 | 0.0 | 2.0 | 0.07 | 0.19 | 0.19 | 98 | 992.6 |
| 20260904193603 | 52 | 292 | 0.0 | 2.0 | 0.09 | 0.19 | 0.19 | 98 | 992.8 |
| 20260904192703 | 52 | 292 | 1.0 | 4.0 | 0.12 | 0.19 | 0.19 | 97 | 992.3 |
| 20260904191803 | 52 | 292 | 1.0 | 2.0 | 0.11 | 0.18 | 0.18 | 97 | 992.4 |
| 20260904190903 | 53 | 292 | 1.0 | 2.0 | 0.09 | 0.17 | 0.17 | 96 | 992.7 |
| 20260904190003 | 53 | 292 | 1.0 | 2.0 | 0.08 | 0.15 | 0.15 | 96 | 992.7 |
| 20260904185405 | 53 | 292 | 0.0 | 2.0 | 0.07 | 0.14 | 0.14 | 95 | 992.8 |
| 20260904184526 | 53 | 292 | 0.0 | 2.0 | 0.05 | 0.12 | 0.13 | 95 | 992.7 |
| 20260904183626 | 54 | 292 | 0.0 | 2.0 | 0.02 | 0.09 | 0.09 | 94 | 992.7 |
| 20260904182705 | 54 | 279 | 0.0 | 2.0 | 0.00 | 0.07 | 0.07 | 92 | 992.8 |
| 20260904181803 | 54 | 234 | 1.0 | 2.0 | 0.00 | 0.07 | 0.07 | 91 | 992.7 |
| 20260904180903 | 54 | 255 | 1.0 | 4.0 | 0.00 | 0.07 | 0.07 | 89 | 992.6 |
| 20260904180003 | 54 | 236 | 1.0 | 6.0 | 0.00 | 0.07 | 0.07 | 88 | 992.4 |
| 20260904175405 | 54 | 240 | 2.0 | 8.0 | 0.00 | 0.07 | 0.07 | 87 | 992.3 |
| 20260904174505 | 54 | 251 | 5.0 | 11.0 | 0.00 | 0.07 | 0.07 | 87 | 992.4 |
| 20260904173606 | 54 | 233 | 6.0 | 11.0 | 0.00 | 0.07 | 0.07 | 87 | 992.3 |
| 20260904172703 | 54 | 234 | 8.0 | 11.0 | 0.00 | 0.07 | 0.07 | 87 | 992.6 |
| 20260904171824 | 55 | 247 | 5.0 | 9.0 | 0.00 | 0.07 | 0.07 | 88 | 992.6 |
| 20260904170903 | 55 | 238 | 4.0 | 13.0 | 0.01 | 0.07 | 0.07 | 88 | 992.3 |
| 20260904170026 | 56 | 239 | 8.0 | 11.0 | 0.01 | 0.07 | 0.07 | 84 | 992.4 |
| 20260904165405 | 56 | 233 | 5.0 | 9.0 | 0.01 | 0.07 | 0.07 | 82 | 992.4 |
| 20260904164526 | 56 | 241 | 3.0 | 8.0 | 0.04 | 0.07 | 0.07 | 82 | 992.6 |
| 20260904163603 | 56 | 248 | 3.0 | 6.0 | 0.07 | 0.07 | 0.07 | 85 | 992.2 |
| 20260904162703 | 56 | 284 | 2.0 | 4.0 | 0.07 | 0.07 | 0.07 | 85 | 992.0 |
| 20260904161803 | 57 | 316 | 2.0 | 6.0 | 0.07 | 0.07 | 0.07 | 81 | 992.1 |
| 20260904160903 | 57 | 321 | 3.0 | 7.0 | 0.06 | 0.06 | 0.06 | 82 | 992.1 |
| 20260904160003 | 58 | 321 | 3.0 | 6.0 | 0.06 | 0.06 | 0.06 | 80 | 992.2 |
| 20260904155424 | 58 | 323 | 4.0 | 4.0 | 0.06 | 0.06 | 0.06 | 79 | 992.3 |
| 20260904154503 | 60 | 81 | 1.0 | 2.0 | 0.04 | 0.04 | 0.04 | 76 | 992.3 |
| 20260904153605 | 61 | 90 | 1.0 | 2.0 | 0.00 | 0.00 | 0.00 | 66 | 992.5 |
| 20260904152703 | 61 | 90 | 0.0 | 2.0 | 0.00 | 0.00 | 0.00 | 69 | 992.4 |
| 20260904151804 | 61 | 90 | 0.0 | 2.0 | 0.00 | 0.00 | 0.00 | 67 | 992.5 |
| 20260904150903 | 62 | 0 | 0.0 | 0.0 | 0.00 | 0.00 | 0.00 | 70 | 992.6 |
| 20260904150005 | 62 | 90 | 0.0 | 2.0 | 0.00 | 0.00 | 0.00 | 68 | 992.6 |
| 20260904145424 | 62 | 90 | 0.0 | 2.0 | 0.00 | 0.00 | 0.00 | 68 | 992.7 |
| 20260904144503 | 62 | 90 | 2.0 | 4.0 | 0.00 | 0.00 | 0.00 | 63 | 992.7 |
| 20260904143603 | 63 | 75 | 2.0 | 4.0 | 0.00 | 0.00 | 0.00 | 60 | 992.4 |
| 20260904142703 | 64 | 74 | 2.0 | 6.0 | 0.00 | 0.00 | 0.00 | 58 | 992.7 |
| 20260904141803 | 65 | 46 | 2.0 | 6.0 | 0.00 | 0.00 | 0.00 | 56 | 992.8 |
| 20260904140903 | 65 | 79 | 2.0 | 6.0 | 0.00 | 0.00 | 0.00 | 56 | 992.6 |
| 20260904140004 | 65 | 61 | 3.0 | 6.0 | 0.00 | 0.00 | 0.00 | 55 | 992.8 |
| 20260904135406 | 65 | 67 | 2.0 | 4.0 | 0.00 | 0.00 | 0.00 | 56 | 992.9 |
| 20260904134503 | 65 | 40 | 2.0 | 7.0 | 0.00 | 0.00 | 0.00 | 56 | 992.9 |
| 20260904133603 | 65 | 59 | 2.0 | 4.0 | 0.00 | 0.00 | 0.00 | 55 | 993.1 |
| 20260904132705 | 65 | 90 | 2.0 | 8.0 | 0.00 | 0.00 | 0.00 | 55 | 993.2 |
| 20260904131805 | 65 | 81 | 2.0 | 4.0 | 0.00 | 0.00 | 0.00 | 57 | 993.2 |
| 20260904130904 | 66 | 90 | 1.0 | 4.0 | 0.00 | 0.00 | 0.00 | 53 | 993.4 |
| 20260904130003 | 65 | 93 | 2.0 | 4.0 | 0.00 | 0.00 | 0.00 | 54 | 993.4 |
| 20260904125405 | 65 | 102 | 2.0 | 4.0 | 0.00 | 0.00 | 0.00 | 54 | 993.6 |
| 20260904124524 | 65 | 108 | 2.0 | 4.0 | 0.00 | 0.00 | 0.00 | 54 | 993.6 |
| 20260904123625 | 65 | 117 | 1.0 | 4.0 | 0.00 | 0.00 | 0.00 | 55 | 993.6 |
| 20260904122725 | 64 | 108 | 2.0 | 9.0 | 0.00 | 0.00 | 0.00 | 56 | 993.7 |
| 20260904121803 | 64 | 95 | 4.0 | 8.0 | 0.00 | 0.00 | 0.00 | 55 | 994.0 |
| 20260904120903 | 65 | 94 | 2.0 | 8.0 | 0.00 | 0.00 | 0.00 | 55 | 993.9 |
| 20260904120005 | 65 | 114 | 5.0 | 7.0 | 0.00 | 0.00 | 0.00 | 54 | 993.7 |
| 20260904115403 | 65 | 115 | 3.0 | 7.0 | 0.00 | 0.00 | 0.00 | 55 | 994.0 |
| 20260904114503 | 65 | 88 | 2.0 | 6.0 | 0.00 | 0.00 | 0.00 | 53 | 994.0 |
| 20260904113603 | 66 | 95 | 2.0 | 4.0 | 0.00 | 0.00 | 0.00 | 53 | 994.2 |
| 20260904112703 | 66 | 107 | 0.0 | 4.0 | 0.00 | 0.00 | 0.00 | 53 | 994.3 |
| 20260904111803 | 64 | 90 | 2.0 | 6.0 | 0.00 | 0.00 | 0.00 | 54 | 994.4 |